Location: Unspecified
(51.5147°N, 7.4673°E)
Time: 09:15:58
(UTC+01:00)

Explorer 7 - Pass Details

Date: 24 February 2026
Orbit: 430 x 541 km, 50.2° (Epoch: 11 March)

Event Time Altitude Azimuth Distance (km) Brightness Sun altitude
Rises 16:32:51 0° 273° (W) 2,442 11.1 11.8°
Reaches altitude 10° 16:34:57 10° 271° (W) 1,585 10.3 11.5°
Maximum altitude 16:38:30 67° 189° (S) 504 7.1 11.1°
Drops below altitude 10° 16:42:11 10° 106° (ESE) 1,645 8.9 10.6°
Sets 16:44:24 0° 104° (ESE) 2,545 9.8 10.3°
